IRIDIUM 158 (43571 NORAD) Tracking and Keplerian Element Data

This shows tracking and keplerian element data for the satellite.

Feedback or suggestion? Click here.




ElementValue
Catalog43571
NameIRIDIUM 158
Epoch Orbit418
Epoch Day235.33554208
Epoch Year2018
RAAN169.7885
Inclination86.4023
Eccentricity0.0002165
Argument of Perigee93.6298
Mean Anonmoly266.5145
Mean Motion14.342182
Decay Rate5E-07
L11 43571U 18061C 18235.33554208 .00000050 00000-0 10854-4 0 9992
L22 43571 86.4023 169.7885 0002165 93.6298 266.5145 14.34218200 4187

Live tracking and technical data element details for IRIDIUM 158 (NORAD 43571). IRIDIUM 158 can be tracked NOW for your location showing map with azimuth and elevation plus other details from your city location.

Track the satellite on the map from your city or location and see movement details for azimuth, elevation, latitude, longitude, range, height, and movement on the map or in text.







IsCatalogInMostPopularTable: catalog: 43571, numindb: 47
Update: records affected: 1



GetName: 43571 IRIDIUM 158

Hit Count: updated at: Tue, 20 Nov 2018 12:12:36 GMT